Time,TemperatureF,DewpointF,PressureIn,WindDirection,WindDirectionDegrees,WindSpeedMPH,WindSpeedGustMPH,Humidity,HourlyPrecipIn,Conditions,Clouds,dailyrainin,SoftwareType,DateUTC
2013-10-10 17:45:00,81.1,57.9,29.96,South,180,8.3,13.0,45,0.00,,,0.00,WUHU216EASYWX,2013-10-10 22:45:00,
2013-10-10 17:50:00,81.0,57.0,29.95,South,180,8.3,13.7,44,0.00,,,0.00,WUHU216EASYWX,2013-10-10 22:50:00,
2013-10-10 17:55:00,80.8,57.6,29.95,South,180,7.6,13.7,45,0.00,,,0.00,WUHU216EASYWX,2013-10-10 22:55:00,
2013-10-10 18:00:00,80.8,57.6,29.95,South,180,3.1,12.1,45,0.00,,,0.00,WUHU216EASYWX,2013-10-10 23:00:00,
2013-10-10 18:01:00,80.8,57.6,29.95,South,180,3.1,12.1,45,0.00,,,0.00,WUHU216EASYWX,2013-10-10 23:01:00,
2013-10-10 18:05:00,80.8,57.6,29.95,South,180,3.1,5.4,45,0.00,,,0.00,WUHU216EASYWX,2013-10-10 23:05:00,
2013-10-10 18:06:00,80.8,57.6,29.95,South,180,3.1,5.4,45,0.00,,,0.00,WUHU216EASYWX,2013-10-10 23:06:00,
2013-10-10 18:10:00,80.4,58.5,29.95,SW,225,4.5,9.9,47,0.00,,,0.00,WUHU216EASYWX,2013-10-10 23:10:00,
2013-10-10 18:11:00,80.4,58.5,29.95,SW,225,4.5,9.9,47,0.00,,,0.00,WUHU216EASYWX,2013-10-10 23:11:00,
2013-10-10 18:15:00,80.2,58.8,29.95,South,180,3.8,9.9,48,0.00,,,0.00,WUHU216EASYWX,2013-10-10 23:15:00,
2013-10-10 18:16:00,80.2,58.8,29.95,South,180,3.8,9.9,48,0.00,,,0.00,WUHU216EASYWX,2013-10-10 23:16:00,
2013-10-10 18:17:00,80.2,58.8,29.95,South,180,3.8,9.9,48,0.00,,,0.00,WUHU216EASYWX,2013-10-10 23:17:00,
2013-10-10 18:20:00,79.9,59.0,29.95,South,180,4.5,7.6,49,0.00,,,0.00,WUHU216EASYWX,2013-10-10 23:20:00,
2013-10-10 18:22:00,79.9,59.0,29.95,South,180,4.5,7.6,49,0.00,,,0.00,WUHU216EASYWX,2013-10-10 23:22:00,
2013-10-10 18:23:00,79.9,59.0,29.95,South,180,4.5,7.6,49,0.00,,,0.00,WUHU216EASYWX,2013-10-10 23:23:00,
2013-10-10 18:25:00,79.2,59.0,29.95,South,180,3.1,7.6,50,0.00,,,0.00,WUHU216EASYWX,2013-10-10 23:25:00,
2013-10-10 18:27:00,79.2,59.0,29.95,South,180,3.1,7.6,50,0.00,,,0.00,WUHU216EASYWX,2013-10-10 23:27:00,
2013-10-10 18:28:00,79.2,59.0,29.95,South,180,3.1,7.6,50,0.00,,,0.00,WUHU216EASYWX,2013-10-10 23:28:00,
2013-10-10 18:30:00,77.7,58.8,29.94,South,180,2.2,6.0,52,0.00,,,0.00,WUHU216EASYWX,2013-10-10 23:30:00,
2013-10-10 18:32:00,77.7,58.8,29.94,South,180,2.2,6.0,52,0.00,,,0.00,WUHU216EASYWX,2013-10-10 23:32:00,
2013-10-10 18:33:00,77.7,58.8,29.94,South,180,2.2,6.0,52,0.00,,,0.00,WUHU216EASYWX,2013-10-10 23:33:00,
2013-10-10 18:36:00,77.0,58.6,29.94,South,180,6.0,9.2,53,0.00,,,0.00,WUHU216EASYWX,2013-10-10 23:36:00,
2013-10-10 18:37:00,77.0,58.6,29.94,South,180,6.0,9.2,53,0.00,,,0.00,WUHU216EASYWX,2013-10-10 23:37:00,
2013-10-10 18:38:00,77.0,58.6,29.94,South,180,6.0,9.2,53,0.00,,,0.00,WUHU216EASYWX,2013-10-10 23:38:00,
2013-10-10 18:39:00,77.0,58.6,29.94,South,180,6.0,9.2,53,0.00,,,0.00,WUHU216EASYWX,2013-10-10 23:39:00,
2013-10-10 18:41:00,76.6,58.3,29.94,South,180,4.5,9.9,53,0.00,,,0.00,WUHU216EASYWX,2013-10-10 23:41:00,
2013-10-10 18:43:00,76.6,58.3,29.94,South,180,4.5,9.9,53,0.00,,,0.00,WUHU216EASYWX,2013-10-10 23:43:00,
2013-10-10 18:44:00,76.6,58.3,29.94,South,180,4.5,9.9,53,0.00,,,0.00,WUHU216EASYWX,2013-10-10 23:44:00,
2013-10-10 18:46:00,76.1,58.3,29.94,South,180,3.8,9.9,54,0.00,,,0.00,WUHU216EASYWX,2013-10-10 23:46:00,
2013-10-10 18:48:00,76.1,58.3,29.94,South,180,3.8,9.9,54,0.00,,,0.00,WUHU216EASYWX,2013-10-10 23:48:00,
2013-10-10 18:49:00,76.1,58.3,29.94,South,180,3.8,9.9,54,0.00,,,0.00,WUHU216EASYWX,2013-10-10 23:49:00,
2013-10-10 18:51:00,75.7,57.9,29.94,South,180,2.2,6.0,54,0.00,,,0.00,WUHU216EASYWX,2013-10-10 23:51:00,
2013-10-10 18:53:00,75.7,57.9,29.94,South,180,2.2,6.0,54,0.00,,,0.00,WUHU216EASYWX,2013-10-10 23:53:00,
2013-10-10 18:54:00,75.7,57.9,29.94,South,180,2.2,6.0,54,0.00,,,0.00,WUHU216EASYWX,2013-10-10 23:54:00,
2013-10-10 18:55:00,75.2,57.9,29.94,SW,225,3.1,6.0,55,0.00,,,0.00,WUHU216EASYWX,2013-10-10 23:55:00,
2013-10-10 18:56:00,75.2,57.9,29.94,SW,225,3.1,6.0,55,0.00,,,0.00,WUHU216EASYWX,2013-10-10 23:56:00,
2013-10-10 18:58:00,75.2,57.9,29.94,SW,225,3.1,6.0,55,0.00,,,0.00,WUHU216EASYWX,2013-10-10 23:58:00,
2013-10-10 18:59:00,75.2,57.9,29.94,SW,225,3.1,6.0,55,0.00,,,0.00,WUHU216EASYWX,2013-10-10 23:59:00,
2013-10-10 19:00:00,75.0,57.7,29.94,South,180,2.2,6.0,55,0.00,,,0.00,WUHU216EASYWX,2013-10-11 00:00:00,
2013-10-10 19:01:00,75.0,57.7,29.94,South,180,2.2,6.0,55,0.00,,,0.00,WUHU216EASYWX,2013-10-11 00:01:00,
2013-10-10 19:03:00,75.0,57.7,29.94,South,180,2.2,6.0,55,0.00,,,0.00,WUHU216EASYWX,2013-10-11 00:03:00,
2013-10-10 19:04:00,75.0,57.7,29.94,South,180,2.2,6.0,55,0.00,,,0.00,WUHU216EASYWX,2013-10-11 00:04:00,
2013-10-10 19:05:00,75.0,57.7,29.94,South,180,2.2,5.4,55,0.00,,,0.00,WUHU216EASYWX,2013-10-11 00:05:00,
2013-10-10 19:06:00,75.0,57.7,29.94,South,180,2.2,5.4,55,0.00,,,0.00,WUHU216EASYWX,2013-10-11 00:06:00,
2013-10-10 19:08:00,75.0,57.7,29.94,South,180,2.2,5.4,55,0.00,,,0.00,WUHU216EASYWX,2013-10-11 00:08:00,
2013-10-10 19:09:00,75.0,57.7,29.94,South,180,2.2,5.4,55,0.00,,,0.00,WUHU216EASYWX,2013-10-11 00:09:00,
2013-10-10 19:10:00,74.3,57.6,29.94,South,180,3.8,6.0,56,0.00,,,0.00,WUHU216EASYWX,2013-10-11 00:10:00,
2013-10-10 19:11:00,74.3,57.6,29.94,South,180,3.8,6.0,56,0.00,,,0.00,WUHU216EASYWX,2013-10-11 00:11:00,
2013-10-10 19:13:00,74.3,57.6,29.94,South,180,3.8,6.0,56,0.00,,,0.00,WUHU216EASYWX,2013-10-11 00:13:00,
2013-10-10 19:14:00,74.3,57.6,29.94,South,180,3.8,6.0,56,0.00,,,0.00,WUHU216EASYWX,2013-10-11 00:14:00,
2013-10-10 19:15:00,73.9,57.7,29.94,South,180,3.8,6.0,57,0.00,,,0.00,WUHU216EASYWX,2013-10-11 00:15:00,
2013-10-10 19:16:00,73.9,57.7,29.94,South,180,3.8,6.0,57,0.00,,,0.00,WUHU216EASYWX,2013-10-11 00:16:00,
2013-10-10 19:17:00,73.9,57.7,29.94,South,180,3.8,6.0,57,0.00,,,0.00,WUHU216EASYWX,2013-10-11 00:17:00,
2013-10-10 19:19:00,73.9,57.7,29.94,South,180,3.8,6.0,57,0.00,,,0.00,WUHU216EASYWX,2013-10-11 00:19:00,
2013-10-10 19:20:00,73.8,57.6,29.94,South,180,3.1,6.9,57,0.00,,,0.00,WUHU216EASYWX,2013-10-11 00:20:00,
2013-10-10 19:21:00,73.8,57.6,29.94,South,180,3.1,6.9,57,0.00,,,0.00,WUHU216EASYWX,2013-10-11 00:21:00,
2013-10-10 19:22:00,73.8,57.6,29.94,South,180,3.1,6.9,57,0.00,,,0.00,WUHU216EASYWX,2013-10-11 00:22:00,
2013-10-10 19:24:00,73.8,57.6,29.94,South,180,3.1,6.9,57,0.00,,,0.00,WUHU216EASYWX,2013-10-11 00:24:00,
2013-10-10 19:25:00,73.6,57.9,29.94,South,180,3.8,6.9,58,0.00,,,0.00,WUHU216EASYWX,2013-10-11 00:25:00,
2013-10-10 19:26:00,73.6,57.9,29.94,South,180,3.8,6.9,58,0.00,,,0.00,WUHU216EASYWX,2013-10-11 00:26:00,
2013-10-10 19:27:00,73.6,57.9,29.94,South,180,3.8,6.9,58,0.00,,,0.00,WUHU216EASYWX,2013-10-11 00:27:00,
2013-10-10 19:29:00,73.6,57.9,29.94,South,180,3.8,6.9,58,0.00,,,0.00,WUHU216EASYWX,2013-10-11 00:29:00,
2013-10-10 19:31:00,73.2,57.6,29.94,South,180,3.8,6.9,58,0.00,,,0.00,WUHU216EASYWX,2013-10-11 00:31:00,
2013-10-10 19:32:00,73.2,57.6,29.94,South,180,3.8,6.9,58,0.00,,,0.00,WUHU216EASYWX,2013-10-11 00:32:00,
2013-10-10 19:34:00,73.2,57.6,29.94,South,180,3.8,6.9,58,0.00,,,0.00,WUHU216EASYWX,2013-10-11 00:34:00,
2013-10-10 19:36:00,73.0,57.9,29.94,South,180,3.8,6.0,59,0.00,,,0.00,WUHU216EASYWX,2013-10-11 00:36:00,
2013-10-10 19:37:00,73.0,57.9,29.94,South,180,3.8,6.0,59,0.00,,,0.00,WUHU216EASYWX,2013-10-11 00:37:00,
2013-10-10 19:40:00,73.0,57.9,29.94,South,180,3.8,6.0,59,0.00,,,0.00,WUHU216EASYWX,2013-10-11 00:40:00,
2013-10-10 19:41:00,72.7,58.1,29.94,South,180,0.7,6.0,60,0.00,,,0.00,WUHU216EASYWX,2013-10-11 00:41:00,
2013-10-10 19:42:00,72.7,58.1,29.94,South,180,0.7,6.0,60,0.00,,,0.00,WUHU216EASYWX,2013-10-11 00:42:00,
2013-10-10 19:43:00,72.7,58.1,29.94,South,180,0.7,6.0,60,0.00,,,0.00,WUHU216EASYWX,2013-10-11 00:43:00,
2013-10-10 19:45:00,72.7,58.1,29.94,South,180,0.7,6.0,60,0.00,,,0.00,WUHU216EASYWX,2013-10-11 00:45:00,
2013-10-10 19:46:00,72.5,57.9,29.94,SE,135,2.2,5.4,60,0.00,,,0.00,WUHU216EASYWX,2013-10-11 00:46:00,
2013-10-10 19:47:00,72.5,57.9,29.94,SE,135,2.2,5.4,60,0.00,,,0.00,WUHU216EASYWX,2013-10-11 00:47:00,
2013-10-10 19:48:00,72.5,57.9,29.94,SE,135,2.2,5.4,60,0.00,,,0.00,WUHU216EASYWX,2013-10-11 00:48:00,
2013-10-10 19:50:00,72.3,57.7,29.94,SW,225,3.1,6.0,60,0.00,,,0.00,WUHU216EASYWX,2013-10-11 00:50:00,
2013-10-10 19:51:00,72.3,57.7,29.94,SW,225,3.1,6.0,60,0.00,,,0.00,WUHU216EASYWX,2013-10-11 00:51:00,
2013-10-10 19:52:00,72.3,57.7,29.94,SW,225,3.1,6.0,60,0.00,,,0.00,WUHU216EASYWX,2013-10-11 00:52:00,
2013-10-10 19:53:00,72.3,57.7,29.94,SW,225,3.1,6.0,60,0.00,,,0.00,WUHU216EASYWX,2013-10-11 00:53:00,
2013-10-10 19:55:00,72.1,57.6,29.94,SW,225,0.7,6.0,60,0.00,,,0.00,WUHU216EASYWX,2013-10-11 00:55:00,
2013-10-10 19:56:00,72.1,57.6,29.94,SW,225,0.7,6.0,60,0.00,,,0.00,WUHU216EASYWX,2013-10-11 00:56:00,
2013-10-10 19:57:00,72.1,57.6,29.94,SW,225,0.7,6.0,60,0.00,,,0.00,WUHU216EASYWX,2013-10-11 00:57:00,
2013-10-10 19:59:00,72.1,57.6,29.94,SW,225,0.7,6.0,60,0.00,,,0.00,WUHU216EASYWX,2013-10-11 00:59:00,
2013-10-10 20:00:00,72.0,57.7,29.94,South,180,1.6,3.8,61,0.00,,,0.00,WUHU216EASYWX,2013-10-11 01:00:00,
2013-10-10 20:01:00,72.0,57.7,29.94,South,180,1.6,3.8,61,0.00,,,0.00,WUHU216EASYWX,2013-10-11 01:01:00,
2013-10-10 20:02:00,72.0,57.7,29.94,South,180,1.6,3.8,61,0.00,,,0.00,WUHU216EASYWX,2013-10-11 01:02:00,
2013-10-10 20:03:00,72.0,57.7,29.94,South,180,1.6,3.8,61,0.00,,,0.00,WUHU216EASYWX,2013-10-11 01:03:00,
2013-10-10 20:05:00,72.0,57.7,29.94,South,180,1.6,3.8,61,0.00,,,0.00,WUHU216EASYWX,2013-10-11 01:05:00,
2013-10-10 20:06:00,72.0,57.7,29.94,South,180,1.6,3.8,61,0.00,,,0.00,WUHU216EASYWX,2013-10-11 01:06:00,
2013-10-10 20:07:00,72.0,57.7,29.94,South,180,1.6,3.8,61,0.00,,,0.00,WUHU216EASYWX,2013-10-11 01:07:00,
2013-10-10 20:08:00,72.0,57.7,29.94,South,180,1.6,3.8,61,0.00,,,0.00,WUHU216EASYWX,2013-10-11 01:08:00,
2013-10-10 20:11:00,71.4,57.7,29.94,South,180,3.8,5.4,62,0.00,,,0.00,WUHU216EASYWX,2013-10-11 01:11:00,
2013-10-10 20:12:00,71.4,57.7,29.94,South,180,3.8,5.4,62,0.00,,,0.00,WUHU216EASYWX,2013-10-11 01:12:00,
2013-10-10 20:13:00,71.4,57.7,29.94,South,180,3.8,5.4,62,0.00,,,0.00,WUHU216EASYWX,2013-10-11 01:13:00,
2013-10-10 23:19:00,68.0,57.6,29.93,South,180,6.9,10.8,69,0.00,,,0.00,WUHU216EASYWX,2013-10-11 04:19:00,
2013-10-10 23:20:00,68.0,57.6,29.93,SSW,201,6.4,11.4,69,0.00,,,0.00,WUHU216EASYWX,2013-10-11 04:20:00,
2013-10-10 23:21:00,68.0,57.6,29.93,SSW,201,6.4,11.4,69,0.00,,,0.00,WUHU216EASYWX,2013-10-11 04:21:00,
2013-10-10 23:24:00,68.0,57.6,29.93,SW,225,6.0,11.4,69,0.00,,,0.00,WUHU216EASYWX,2013-10-11 04:24:00,
2013-10-10 23:25:00,68.0,57.6,29.93,SW,225,6.0,11.4,69,0.00,,,0.00,WUHU216EASYWX,2013-10-11 04:25:00,
2013-10-10 23:26:00,68.0,57.6,29.93,SE,135,5.4,11.4,69,0.00,,,0.00,WUHU216EASYWX,2013-10-11 04:26:00,
2013-10-10 23:30:00,67.6,57.2,29.93,SE,135,5.4,9.9,69,0.00,,,0.00,WUHU216EASYWX,2013-10-11 04:30:00,
2013-10-10 23:31:00,67.6,57.2,29.93,SE,135,5.4,9.9,69,0.00,,,0.00,WUHU216EASYWX,2013-10-11 04:31:00,
2013-10-10 23:35:00,67.5,57.4,29.93,South,180,5.4,11.4,70,0.00,,,0.00,WUHU216EASYWX,2013-10-11 04:35:00,
2013-10-10 23:36:00,67.5,57.4,29.93,South,180,5.4,11.4,70,0.00,,,0.00,WUHU216EASYWX,2013-10-11 04:36:00,
2013-10-10 23:40:00,67.3,57.2,29.93,South,180,4.5,11.4,70,0.00,,,0.00,WUHU216EASYWX,2013-10-11 04:40:00,
2013-10-10 23:41:00,67.3,57.2,29.93,South,180,4.5,11.4,70,0.00,,,0.00,WUHU216EASYWX,2013-10-11 04:41:00,
2013-10-10 23:42:00,67.3,57.2,29.93,South,180,4.5,11.4,70,0.00,,,0.00,WUHU216EASYWX,2013-10-11 04:42:00,
2013-10-10 23:45:00,67.3,57.2,29.93,SE,135,5.4,8.3,70,0.00,,,0.00,WUHU216EASYWX,2013-10-11 04:45:00,
2013-10-10 23:46:00,67.3,57.2,29.93,SE,135,5.4,8.3,70,0.00,,,0.00,WUHU216EASYWX,2013-10-11 04:46:00,
2013-10-10 23:47:00,67.3,57.2,29.93,SE,135,5.4,8.3,70,0.00,,,0.00,WUHU216EASYWX,2013-10-11 04:47:00,
2013-10-10 23:48:00,67.3,57.2,29.93,SE,135,5.4,8.3,70,0.00,,,0.00,WUHU216EASYWX,2013-10-11 04:48:00,
2013-10-10 23:50:00,67.1,57.0,29.92,South,180,5.4,12.1,70,0.00,,,0.00,WUHU216EASYWX,2013-10-11 04:50:00,
2013-10-10 23:51:00,67.1,57.0,29.92,South,180,5.4,12.1,70,0.00,,,0.00,WUHU216EASYWX,2013-10-11 04:51:00,
2013-10-10 23:52:00,67.1,57.0,29.92,South,180,5.4,12.1,70,0.00,,,0.00,WUHU216EASYWX,2013-10-11 04:52:00,
2013-10-10 23:53:00,67.1,57.0,29.92,South,180,5.4,12.1,70,0.00,,,0.00,WUHU216EASYWX,2013-10-11 04:53:00,
2013-10-10 23:55:00,66.9,57.2,29.92,South,180,6.0,12.1,71,0.00,,,0.00,WUHU216EASYWX,2013-10-11 04:55:00,
2013-10-10 23:56:00,66.9,57.2,29.92,South,180,6.0,12.1,71,0.00,,,0.00,WUHU216EASYWX,2013-10-11 04:56:00,
2013-10-10 23:57:00,66.9,57.2,29.92,South,180,6.0,12.1,71,0.00,,,0.00,WUHU216EASYWX,2013-10-11 04:57:00,
2013-10-10 23:58:00,66.9,57.2,29.92,South,180,6.0,12.1,71,0.00,,,0.00,WUHU216EASYWX,2013-10-11 04:58:00,